• In Hungary
  • List of Countries
  • For 7 days
  • Water Temperature
  • Satellite Maps
  • Weather Map
  • News
  • Weather Widgets
  • user-avatar
    Login

    Hourly Weather Ostrowek

    Today, 13 December, Wednesday

    Time Temperature Precipitation Wind Pressure Humidity
    00:00 -1°C° 0 mm 6 mps 740 mmHg 75%
    01:00 -1°C° 0 mm 6 mps 741 mmHg 74%
    02:00 0°C° 0 mm 5 mps 741 mmHg 75%
    03:00 -1°C° 0 mm 5 mps 741 mmHg 76%
    04:00 -1°C° 0 mm 5 mps 741 mmHg 77%
    05:00 -1°C° 0 mm 5 mps 742 mmHg 77%
    06:00 -1°C° 0 mm 5 mps 742 mmHg 79%
    07:00 -1°C° 0 mm 5 mps 743 mmHg 81%
    08:00 -1°C° 0 mm 3 mps 743 mmHg 83%
    09:00 -1°C° 0 mm 3 mps 744 mmHg 82%
    10:00 -1°C° 0 mm 4 mps 744 mmHg 81%
    11:00 -1°C° 0 mm 4 mps 745 mmHg 81%
    12:00 -1°C° 0 mm 4 mps 745 mmHg 80%
    13:00 0°C° 0 mm 3 mps 745 mmHg 79%
    14:00 0°C° 0 mm 3 mps 745 mmHg 78%
    15:00 0°C° 0 mm 3 mps 745 mmHg 81%
    16:00 -1°C° 0 mm 3 mps 745 mmHg 84%
    17:00 -2°C° 0 mm 2 mps 744 mmHg 88%
    18:00 -2°C° 0 mm 2 mps 744 mmHg 89%
    19:00 -2°C° 0 mm 2 mps 744 mmHg 89%
    20:00 -3°C° 0 mm 2 mps 743 mmHg 90%
    21:00 -4°C° 0 mm 3 mps 743 mmHg 90%
    22:00 -4°C° 0 mm 3 mps 743 mmHg 89%
    23:00 -4°C° 0 mm 3 mps 742 mmHg 89%

    Tomorrow, 14 December, Thursday

    Time Temperature Precipitation Wind Pressure Humidity
    00:00 -4°C° 0 mm 3 mps 742 mmHg 88%
    01:00 -3°C° 0 mm 4 mps 741 mmHg 86%
    02:00 -3°C° 0 mm 4 mps 740 mmHg 85%
    03:00 -4°C° 0 mm 5 mps 739 mmHg 83%
    04:00 -4°C° 0 mm 5 mps 739 mmHg 82%
    05:00 -4°C° 0 mm 5 mps 738 mmHg 81%
    06:00 -4°C° 0 mm 6 mps 737 mmHg 81%
    07:00 -4°C° 0 mm 6 mps 736 mmHg 82%
    08:00 -4°C° 0 mm 7 mps 736 mmHg 82%
    09:00 -3°C° 0 mm 7 mps 735 mmHg 80%
    10:00 -2°C° 0 mm 7 mps 734 mmHg 78%
    11:00 -2°C° 0 mm 8 mps 733 mmHg 75%
    12:00 -2°C° 0.2 mm 8 mps 733 mmHg 76%
    13:00 -1°C° 0.2 mm 8 mps 732 mmHg 76%
    14:00 -1°C° 0.2 mm 7 mps 731 mmHg 76%
    15:00 -1°C° 0 mm 7 mps 731 mmHg 76%
    16:00 -1°C° 0 mm 6 mps 731 mmHg 76%
    17:00 0°C° 0 mm 5 mps 730 mmHg 77%
    18:00 +1°C° 0.3 mm 6 mps 730 mmHg 77%
    19:00 +1°C° 0.3 mm 6 mps 730 mmHg 77%
    20:00 +1°C° 0.3 mm 6 mps 730 mmHg 77%
    21:00 -1°C° 0.2 mm 7 mps 730 mmHg 79%
    22:00 -1°C° 0.2 mm 7 mps 730 mmHg 81%
    23:00 -2°C° 0.2 mm 8 mps 731 mmHg 82%

    Day after tomorrow, 15 December, Friday

    Time Temperature Precipitation Wind Pressure Humidity
    00:00 -2°C° 0.2 mm 8 mps 731 mmHg 82%
    01:00 -2°C° 0.2 mm 7 mps 732 mmHg 81%
    02:00 -2°C° 0.2 mm 7 mps 733 mmHg 81%
    03:00 -3°C° 0 mm 7 mps 733 mmHg 80%
    04:00 -3°C° 0 mm 6 mps 733 mmHg 79%
    05:00 -4°C° 0 mm 6 mps 733 mmHg 79%
    06:00 -4°C° 0 mm 5 mps 733 mmHg 78%
    07:00 -4°C° 0 mm 5 mps 733 mmHg 78%
    08:00 -3°C° 0 mm 4 mps 733 mmHg 78%
    09:00 -2°C° 0 mm 5 mps 733 mmHg 76%
    10:00 -2°C° 0 mm 5 mps 733 mmHg 74%
    11:00 -1°C° 0 mm 5 mps 733 mmHg 73%
    12:00 -1°C° 0.6 mm 5 mps 732 mmHg 77%
    13:00 -1°C° 0.6 mm 5 mps 732 mmHg 81%
    14:00 0°C° 0.6 mm 5 mps 731 mmHg 85%
    15:00 0°C° 0.6 mm 5 mps 731 mmHg 87%
    16:00 0°C° 0.6 mm 5 mps 731 mmHg 88%
    17:00 0°C° 0.6 mm 5 mps 731 mmHg 90%
    18:00 0°C° 0.3 mm 5 mps 731 mmHg 91%
    19:00 -1°C° 0.3 mm 6 mps 732 mmHg 91%
    20:00 -2°C° 0.3 mm 6 mps 732 mmHg 92%
    21:00 -2°C° 0 mm 6 mps 733 mmHg 91%
    22:00 -2°C° 0 mm 6 mps 734 mmHg 90%
    23:00 -2°C° 0 mm 6 mps 734 mmHg 88%

    16 December, Saturday

    Time Temperature Precipitation Wind Pressure Humidity
    00:00 -2°C° 0 mm 5 mps 735 mmHg 90%
    01:00 -2°C° 0 mm 4 mps 735 mmHg 91%
    02:00 -2°C° 0 mm 3 mps 735 mmHg 92%
    03:00 -2°C° 0 mm 3 mps 735 mmHg 93%
    04:00 -2°C° 0 mm 2 mps 735 mmHg 94%
    05:00 -3°C° 0 mm 2 mps 735 mmHg 95%
    06:00 -3°C° 0 mm 2 mps 735 mmHg 95%
    07:00 -3°C° 0 mm 2 mps 735 mmHg 94%
    08:00 -3°C° 0 mm 2 mps 735 mmHg 94%
    09:00 -2°C° 0 mm 2 mps 735 mmHg 93%
    10:00 -2°C° 0 mm 2 mps 736 mmHg 92%
    11:00 -1°C° 0 mm 2 mps 736 mmHg 91%
    12:00 -1°C° 0 mm 2 mps 736 mmHg 91%
    13:00 -1°C° 0 mm 2 mps 736 mmHg 91%
    14:00 -1°C° 0 mm 2 mps 736 mmHg 90%
    15:00 -1°C° 0 mm 2 mps 736 mmHg 91%
    16:00 -1°C° 0 mm 2 mps 736 mmHg 91%
    17:00 -2°C° 0 mm 2 mps 736 mmHg 91%
    18:00 -2°C° 0 mm 2 mps 737 mmHg 91%
    19:00 -2°C° 0 mm 2 mps 737 mmHg 91%
    20:00 -2°C° 0 mm 2 mps 738 mmHg 91%
    21:00 -2°C° 0 mm 2 mps 738 mmHg 91%
    22:00 -4°C° 0 mm 3 mps 739 mmHg 92%
    23:00 -4°C° 0 mm 3 mps 739 mmHg 93%

    17 December, Sunday

    Time Temperature Precipitation Wind Pressure Humidity
    00:00 -2°C° 0 mm 3 mps 739 mmHg 92%
    01:00 -2°C° 0 mm 3 mps 740 mmHg 92%
    02:00 -2°C° 0 mm 3 mps 740 mmHg 91%
    03:00 -2°C° 0 mm 3 mps 740 mmHg 90%
    04:00 -2°C° 0 mm 3 mps 741 mmHg 89%
    05:00 -1°C° 0 mm 3 mps 741 mmHg 88%
    06:00 -2°C° 0 mm 2 mps 741 mmHg 89%
    07:00 -2°C° 0 mm 2 mps 741 mmHg 90%
    08:00 -2°C° 0 mm 2 mps 742 mmHg 90%
    09:00 -2°C° 0 mm 2 mps 742 mmHg 90%
    10:00 -2°C° 0 mm 3 mps 743 mmHg 89%
    11:00 -1°C° 0 mm 3 mps 743 mmHg 88%
    12:00 -1°C° 0 mm 2 mps 743 mmHg 87%
    13:00 -1°C° 0 mm 2 mps 743 mmHg 86%
    14:00 -1°C° 0 mm 2 mps 743 mmHg 85%
    15:00 +1°C° 0 mm 1 mps 744 mmHg 86%
    16:00 0°C° 0 mm 1 mps 744 mmHg 87%
    17:00 0°C° 0 mm 1 mps 744 mmHg 89%
    18:00 0°C° 0 mm 1 mps 744 mmHg 89%
    19:00 -1°C° 0 mm 1 mps 745 mmHg 89%
    20:00 -1°C° 0 mm 1 mps 745 mmHg 89%
    21:00 -2°C° 0 mm 1 mps 745 mmHg 90%
    22:00 -2°C° 0 mm 1 mps 745 mmHg 90%
    23:00 -2°C° 0 mm 1 mps 745 mmHg 90%

    18 December, Monday

    Time Temperature Precipitation Wind Pressure Humidity
    00:00 -2°C° 0 mm 1 mps 745 mmHg 91%
    01:00 -2°C° 0 mm 1 mps 745 mmHg 91%
    02:00 -2°C° 0 mm 1 mps 745 mmHg 91%
    03:00 -4°C° 0 mm 2 mps 745 mmHg 92%
    04:00 -4°C° 0 mm 2 mps 745 mmHg 92%
    05:00 -5°C° 0 mm 2 mps 745 mmHg 92%
    06:00 -5°C° 0 mm 2 mps 745 mmHg 92%
    07:00 -5°C° 0 mm 2 mps 746 mmHg 92%
    08:00 -5°C° 0 mm 2 mps 746 mmHg 92%
    09:00 -4°C° 0 mm 2 mps 746 mmHg 92%
    10:00 -4°C° 0 mm 2 mps 746 mmHg 91%
    11:00 -3°C° 0 mm 2 mps 746 mmHg 90%
    12:00 -4°C° 0 mm 3 mps 746 mmHg 91%
    13:00 -2°C° 0 mm 3 mps 746 mmHg 91%
    14:00 -2°C° 0 mm 3 mps 746 mmHg 91%
    15:00 -2°C° 0 mm 3 mps 746 mmHg 90%
    16:00 -2°C° 0 mm 3 mps 747 mmHg 90%
    17:00 -2°C° 0 mm 3 mps 747 mmHg 90%
    18:00 -2°C° 0 mm 3 mps 747 mmHg 89%
    19:00 -4°C° 0 mm 3 mps 748 mmHg 89%
    20:00 -4°C° 0 mm 3 mps 748 mmHg 88%
    21:00 -4°C° 0 mm 3 mps 749 mmHg 89%
    22:00 -5°C° 0 mm 3 mps 749 mmHg 90%
    23:00 -5°C° 0 mm 3 mps 750 mmHg 91%
    Show more